Other Surface Observations
Issued by NWS Charleston, SC

Home | Current Version | Previous Version | Text Only | Print | Product List | Glossary On
Versions: 1 2 3 4 5 6 7 8 9 10 11 12 13 14 15 16 17 18 19 20 21 22 23 24 25 26 27 28 29 30 31 32 33 34 35 36 37 38 39 40 41 42 43 44 45 46 47 48 49 50
556
SXUS52 KCHS 202327
OSOCHS

MARINE OBSERVATIONS
NATIONAL WEATHER SERVICE CHARLESTON SC
600 PM EST MON FEB 20 2017

...DOWNTOWN CHARLESTON AND HARBOR...

CITY           SKY/WX    TMP DP  RH WIND       PRES   REMARKS
WATERFRONT PRK   N/A     60  58  93 SE6       30.15S

...LAKE MOULTRIE...

CITY           SKY/WX    TMP DP  RH WIND       PRES   REMARKS
PINOPOLIS        N/A     68  52  56 VRB2      30.06S

...LAKE AND SUPPLEMENTAL COASTAL OBSERVATIONS...

STATION/POSITION TIME  TEMP    WIND        PRES    WAVE   SWELL
                       AIR SEA DIR/SP/G            HT/PER HT/PER/DIR
                 (UTC) (F)     (DEG/KT/KT) (MB)    (FT/S) (FT/S/D)
FORT PULASKI     2300   61 60  100/  5/  6 1021.4
SAPELO ISLAND    2200   69      90/  5     1021.0
WINYAH BAY       NOT AVBL
LAKE MURRAY      2320   64        CALM     1020.7
ACE BASIN NERRS  2145   67     150/  1     1021.0


...C-MAN AND BUOY OBSERVATIONS...

STATION/POSITION TIME  TEMP    WIND        PRES    WAVE   SWELL
                       AIR SEA DIR/SP/G            HT/PER HT/PER/DIR
                 (UTC) (F)     (DEG/KT/KT) (MB)    (FT/S) (FT/S/D)
BUOY 41004       2250   65 69   40/ 10/ 10 1021.0F   2/ 4   2/110/ 7
BUOY 41008       2250   63 63   40/  8/  8 1020.9R   1/ 7
FOLLY BEACH CMAN 2300   60      80/  5/  5 1022.0R
CAPERS NS BUOY   2308   60 60  100/  6/  8 1021.5R
FRIPP NS BUOY    2308   61 61  110/  4/  6 1021.2R
5E ST. MARYS GA  2300      64                N/A     1/10


STATION/POSITION TIME  TEMP    WIND        PRES    WAVE   SWELL
                       AIR SEA DIR/SP/G            HT/PER HT/PER/DIR
                 (UTC) (F)     (DEG/KT/KT) (MB)    (FT/S) (FT/S/D)
FRYING PAN BUOY  2310   65 65   60/ 14/ 17 1021.8
BUOY 41025       2250   58 65   20/ 17/ 21 1022.1R   3/ 5   2/ 70/ 7
CAPE LOOKOUT NC  2300   57      30/ 10/ 11 1022.3R
BUOY 41002       2250   70 71   10/ 17/ 19 1019.4R   5/ 7   2/ 60/ 9
BUOY 41010       NOT AVBL
ST AUGUSTINE FL  2300   67 69   40/ 10/ 11 1021.1R

$$




USA.gov is the U.S. government's official web portal to all federal, state and local government web resources and services.